Weather History for Riverton, WY

Change the Weather History Date:

Wednesday, July 3, 2013

  Actual Average Record
Temperature  
Mean Temperature 76 °F 69 °F  
Max Temperature 90 °F 84 °F 99 °F (1996)
Min Temperature 61 °F 54 °F 43 °F (1997)
Degree Days  
Heating Degree Days 0 1  
Month to date heating degree days 0 3  
Since 1 June heating degree days 52 122  
Since 1 July heating degree days 0 3  
Cooling Degree Days 11 5  
Month to date cooling degree days 30 15  
Year to date cooling degree days 180 90  
Since 1 June cooling degree days 167 81  
Growing Degree Days 26 (Base 50)    
Moisture  
Dew Point 46 °F    
Average Humidity 43    
Maximum Humidity 66    
Minimum Humidity 19    
Precipitation  
Precipitation 0.19 in 0.04 in 0.19 in (2013)
Month to date precipitation 0.19 0.12  
Year to date precipitation 3.68 5.48  
Snow  
Snow 0.00 in - - ()
Month to date snowfall 0.0  
Since 1 June snowfall 0.0  
Since 1 July snowfall 0.0  
Snow Depth 0.00 in    
Sea Level Pressure  
Sea Level Pressure 29.88 in    
Wind  
Wind Speed 8 mph (NW)    
Max Wind Speed 22 mph    
Max Gust Speed 29 mph    
Visibility 10 miles    
Events Rain , Thunderstorm    
T = Trace of Precipitation, MM = Missing Value Source: NWS Daily Summary

Daily Weather History Graph

Daily Weather History Graph

Search for Another Location

Airport:

Trip Planner

Search our weather history database for the weather conditions in past years. The results will help you decide how hot, cold, wet, or windy it might be!

Date:

Astronomy

Jul. 03, 2013 Rise Set
Actual Time 5:39 AM MDT 8:56 PM MDT
Civil Twilight 5:04 AM MDT 9:31 PM MDT
Nautical Twilight 4:19 AM MDT 10:16 PM MDT
Astronomical Twilight 3:23 AM MDT 11:12 PM MDT
Moon 2:22 AM MDT (7/3) 5:07 PM MDT (7/3)
Length of Visible Light 16h 27m
Length of Day
15h 16m
Waning Crescent, 18% of the Moon is Illuminated
Jul 3
Waning Crescent
Jul 8
New
Jul 15
First Quarter
Jul 22
Full
Jul 29
Last Quarter

Hourly Weather History & Observations

Time (MDT) Temp. Heat Index Dew Point Humidity Pressure Visibility Wind Dir Wind Speed Gust Speed Precip Events Conditions
12:53 AM 71.1 °F - 35.1 °F 27% 29.91 in 10.0 mi ENE 4.6 mph - N/A   Clear
1:53 AM 64.9 °F - 34.0 °F 32% 29.92 in 10.0 mi North 8.1 mph - N/A   Clear
2:53 AM 66.9 °F - 36.0 °F 32% 29.89 in 10.0 mi Calm Calm - N/A   Clear
3:53 AM 64.0 °F - 37.0 °F 37% 29.88 in 10.0 mi WNW 9.2 mph - N/A   Clear
4:53 AM 63.0 °F - 36.0 °F 37% 29.88 in 10.0 mi WNW 10.4 mph - N/A   Clear
5:53 AM 63.0 °F - 36.0 °F 37% 29.88 in 10.0 mi NW 9.2 mph - N/A   Clear
6:53 AM 68.0 °F - 37.0 °F 32% 29.88 in 10.0 mi WNW 12.7 mph - N/A   Clear
7:53 AM 73.0 °F - 37.0 °F 27% 29.88 in 10.0 mi WNW 6.9 mph - N/A   Clear
8:53 AM 75.0 °F - 39.9 °F 28% 29.88 in 10.0 mi West 8.1 mph - N/A   Clear
9:53 AM 72.0 °F - 39.9 °F 31% 29.95 in 10.0 mi North 15.0 mph 19.6 mph N/A   Scattered Clouds
10:41 AM 77.0 °F - 42.8 °F 29% 30.11 in 10.0 mi ENE 6.9 mph - N/A Thunderstorm Partly Cloudy
10:53 AM 77.0 °F - 43.0 °F 30% 29.88 in 10.0 mi ESE 8.1 mph - N/A   Partly Cloudy
11:53 AM 82.0 °F - 44.1 °F 26% 29.87 in 10.0 mi South 8.1 mph - N/A   Clear
12:53 PM 89.1 °F - 43.0 °F 20% 29.85 in 10.0 mi NNE 11.5 mph 18.4 mph N/A   Clear
1:53 PM 88.0 °F - 44.1 °F 22% 29.84 in 10.0 mi ESE 9.2 mph - N/A   Partly Cloudy
2:30 PM 84.2 °F - 48.2 °F 29% 30.07 in 10.0 mi Calm Calm - 0.00 in Rain , Thunderstorm Light Thunderstorms and Rain
2:53 PM 69.1 °F - 55.9 °F 63% 29.90 in 5.0 mi West 10.4 mph 26.5 mph 0.16 in Rain Rain
3:53 PM 81.0 °F 80.7 °F 55.0 °F 41% 29.85 in 10.0 mi SW 4.6 mph - 0.03 in   Clear
4:53 PM 81.0 °F 81.0 °F 57.0 °F 44% 29.83 in 10.0 mi NW 8.1 mph - N/A   Partly Cloudy
5:53 PM 82.0 °F 81.6 °F 55.9 °F 41% 29.81 in 10.0 mi WNW 6.9 mph - N/A   Clear
6:53 PM 80.1 °F 80.2 °F 55.9 °F 43% 29.81 in 10.0 mi West 6.9 mph - N/A   Clear
7:53 PM 77.0 °F - 55.0 °F 47% 29.80 in 10.0 mi West 5.8 mph - N/A   Scattered Clouds
8:53 PM 73.9 °F - 55.9 °F 53% 29.81 in 10.0 mi NW 11.5 mph - N/A   Clear
9:53 PM 71.1 °F - 59.0 °F 66% 29.84 in 10.0 mi NNW 11.5 mph - N/A   Clear
10:53 PM 72.0 °F - 52.0 °F 49% 29.84 in 10.0 mi North 3.5 mph - N/A   Scattered Clouds
11:53 PM 73.0 °F - 51.1 °F 46% 29.83 in 10.0 mi SSW 3.5 mph - N/A   Scattered Clouds